Regional Weather Roundup
Issued by NWS Newport/Morehead, NC

Current Version | Previous Version | Graphics & Text | Print | Product List | Glossary Off
Versions: 1 2 3 4 5 6 7 8 9 10 11 12 13 14 15 16 17 18 19 20 21 22 23 24 25 26 27 28 29 30 31 32 33 34 35 36 37 38 39 40 41 42 43 44 45 46 47 48 49 50

000
ASUS42 KMHX 270313
RWRMHX
WEATHER ROUNDUP FOR EASTERN NORTH CAROLINA
NATIONAL WEATHER SERVICE NEWPORT/MOREHEAD CITY NC
1100 PM EDT FRI MAY 26 2017

NOTE: "FAIR" INDICATES FEW OR NO CLOUDS BELOW 12,000 FEET
WITH NO SIGNIFICANT WEATHER AND/OR OBSTRUCTIONS TO VISIBILITY

NCZ015>017-031-032-045>047-102-103-270400-
NORTH COAST

CITY           SKY/WX    TMP DP  RH WIND       PRES   REMARKS
EDENTON        CLEAR     69  63  80 CALM      29.95R
ELIZABETH CITY CLEAR     67  62  84 SW6       29.93R
KITTY HAWK     CLEAR     71  60  68 CALM      29.93R
MANTEO         CLEAR     71  62  73 CALM      29.94S

$$

NCZ045>047-081-094-103-104-270400-
CENTRAL COAST

CITY           SKY/WX    TMP DP  RH WIND       PRES   REMARKS
FRISCO         CLEAR     73  68  84 W7        29.95R

$$

NCZ095-097-098-100-101-270400-
SOUTHERN COAST

CITY           SKY/WX    TMP DP  RH WIND       PRES   REMARKS
BEAUFORT       CLEAR     74  70  87 SW9       29.96R
CEDAR ISLAND   NOT AVBL
JACKSONVILLE   CLEAR     70  61  73 W3        29.97R
PINEY ISLAND   CLEAR    N/A N/A N/A S5        29.96R
WILMINGTON     CLEAR     70  65  84 SW6       29.97R


$$

NCZ011>013-027>030-043-044-078>080-089-090>093-098-270400-
COASTAL PLAIN

CITY           SKY/WX    TMP DP  RH WIND       PRES   REMARKS
AHOSKIE        NOT AVBL
CLINTON        CLEAR     67  61  81 CALM      29.97R
ELIZABETHTOWN  CLEAR     71  58  65 CALM      29.97R
GOLDSBORO      NOT AVBL
GREENVILLE     CLEAR     64  61  88 CALM      29.97R
HAVELOCK       CLEAR     68  60  75 CALM      29.97R
KENANSVILLE    CLEAR     63  59  88 CALM      29.96S
KINSTON        CLEAR     63  60  88 CALM      29.96S
NEW BERN       CLEAR     65  62  90 CALM      29.97R
RICHLANDS      CLEAR     64  61  90 CALM      29.97R
ROCKY MOUNT    CLEAR     63  61  93 CALM      29.95R
WASHINGTON     CLEAR     65  60  81 CALM      29.95S
WHITEVILLE     CLEAR     67  59  75 CALM      29.97R

$$

AMZ130-135-150-152-154-156-158-170-250-252-270-ANZ085-086-088-633-658-670-270400-
MARINE OBSERVATIONS

STATION/POSITION TIME  TEMP    WIND        PRES    WAVE   SWELL
                       AIR SEA DIR/SP/G            HT/PER HT/PER
                 (UTC) (F)     (DEG/KT/KT) (MB)    (FT/S) (FT/S)
CHESAPEAKE LIGHT NOT AVBL
64 E VA BEACH    0250   65 63  240/  6/  8 1013.3    3/ 8   3/ 8
DUCK             0248   72 63  240/  5/  6 1013.0
2 E DUCK         0300      63                N/A     1/ 9
OREGON INLET     0236   71 74  210/  5/  5 1013.6
13E OREGON INLT  0248      65                N/A     2/ 7   2/ 7
HATTERAS CG      0248   72 74  230/  6/  8 1014.0
DIAMOND BUOY     0250   75 79  250/ 16/ 17 1014.0    6/ 6   2/12
CAPE LOOKOUT     0300   73     250/ 10/ 13 1014.4
BEAUFORT LAB     0248   73 71  250/  4/  8 1013.8
30 SE NEW RVR IN 0208   75 78  250/ 17/ 21 1014.1
30 SE NEW RVR IN 0243      78                N/A     6/ 7
27 SE WRIGHTSVLE 0208   74 76  230/ 17/ 21 1013.5
5 SE WRIGHTSVLE  0208   74 74  220/ 10/ 14 1013.9
225 S CAPE HAT   0250   77 77  260/ 14/ 16 1016.6    5/ 7   3/ 7
41 SE CHARLESTON 0300   74 74  230/ 14/ 16 1015.6

$$




USA.gov is the U.S. government's official web portal to all federal, state and local government web resources and services.